Location: Asheville, NC
(35.6000°N, 82.5500°W)
Time: 07:29:35
(UTC-04:00)

Iridium 28 - Pass Details

Date: 11 January 2018
Orbit: 771 x 775 km, 86.4° (Epoch: 18 July)

Event Time Altitude Azimuth Distance (km) Brightness Sun altitude
Rises 18:31:16 0° 350° (N) 3,256 8.7 -11.1°
Reaches altitude 10° 18:33:42 10° 344° (NNW) 2,325 8.0 -11.5°
Maximum altitude 18:38:37 44° 273° (W) 1,056 6.8 -12.5°
Drops below altitude 10° 18:43:31 10° 202° (SSW) 2,311 8.5 -13.4°
Sets 18:45:56 0° 196° (SSW) 3,234 9.2 -13.9°
